Weather in Kupiansk

Ukraine / Kharkiv Region     49˚42′42″N   37˚36′48″E
temp.,
°C
wind,
m/s
gust,
m/s
humid.,
%
clouds,
%
prec.,
mm/h
press.,
hPa
HPBL,
m
3 december, thu
thu323:00−2˚ese61083100 0.0 1032482
02:00−3˚ese61087100 0.1 1032508
05:00−3˚ese6980100 0.1 1031514
08:00−3˚ese699299 0.9 1032508
11:00−3˚ese5988100 1.3 1032501
14:00−1˚ese5977100 1.8 1031567
17:00−2˚se61089100 0.5 1031561
20:00−2˚se6994100 1.5 1031512
4 december, fri
fri423:00−2˚ese5985100 0.3 1031495
02:00−2˚ese5975100 0.3 1032462
05:00−3˚ese6975100 0.1 1031441
08:00−3˚ese51081100 0.1 1032450
11:00−2˚ese6981100 0.0 1031450
14:00−1˚ese61081100 0.0 1032456
17:00−2˚ese61083100 0.0 1032459
20:00−2˚ese61083100 0.0 1033519
5 december, sat
sat523:00−2˚ese61075100 0.0 1033508
02:00−2˚ese5969100 0.0 1034435
05:00−3˚ese597197 0.0 1034412
08:00−5˚e5117272 0.0 1035369
11:00−2˚ese69600 0.0 1035440
14:00−2˚e59550 0.0 1035439
17:00−4˚e612600 0.0 1035335
20:00−5˚e511660 0.0 1036327
6 december, sun
sun623:00−6˚e510650 0.0 1037300
02:00−6˚e510650 0.0 1038274
05:00−7˚e510680 0.0 1038283
08:00−7˚e510720 0.0 1038334
11:00−4˚e69610 0.0 1038444
14:00−3˚e610650 0.0 1037474
17:00−5˚ene612730 0.0 1037433
20:00−6˚e612730 0.0 1039483
7 december, mon
mon723:00−7˚e611720 0.0 1039436
02:00−7˚e511770 0.0 1039414
05:00−8˚e611770 0.0 1038385
08:00−8˚e612750 0.0 1039406
11:00−5˚e711610 0.0 1039500
14:00−3˚e612550 0.0 1038553
17:00−5˚e612630 0.0 1038408
20:00−6˚e612680 0.0 1038365